Weather History for KOZA - September, 2012

Change the Weather History Date:

Saturday, September 8, 2012

  Actual Average Record
Temperature  
Mean Temperature 73 °F -  
Max Temperature 82 °F 88 °F - (-1)
Min Temperature 64 °F 63 °F - (-1)
Cooling Degree Days 8    
Growing Degree Days 23 (Base 50)    
Moisture  
Dew Point 45 °F    
Average Humidity 38    
Maximum Humidity 68    
Minimum Humidity 21    
Precipitation  
Precipitation 0.00 in - - ()
Sea Level Pressure  
Sea Level Pressure 30.17 in    
Wind  
Wind Speed 16 mph (NNE)    
Max Wind Speed 30 mph    
Max Gust Speed 36 mph    
Visibility 10 miles    
Events      
Averages and records for this station are not official NWS values.
T = Trace of Precipitation, MM = Missing Value Source: NWS Daily Summary

Daily Weather History Graph

Daily Weather History Graph

Search for Another Location

Airport or City:

Trip Planner

Search our weather history database for the weather conditions in past years. The results will help you decide how hot, cold, wet, or windy it might be!

Date:

Astronomy

Sep. 08, 2012 Rise Set
Actual Time 7:25 AM CDT 7:58 PM CDT
Civil Twilight 7:01 AM CDT 8:22 PM CDT
Nautical Twilight 6:32 AM CDT 8:51 PM CDT
Astronomical Twilight 6:03 AM CDT 9:20 PM CDT
Moon 12:26 AM CDT (9/8) 2:39 PM CDT (9/8)
Length of Visible Light 13h 21m
Length of Day
12h 33m
Waning Gibbous, 48% of the Moon is Illuminated
Sep 8
Waning Gibbous
Sep 15
New
Sep 22
First Quarter
Sep 29
Full
Oct 8
Last Quarter

Hourly Weather History & Observations

Time (CDT) Temp. Dew Point Humidity Pressure Visibility Wind Dir Wind Speed Gust Speed Precip Events Conditions
12:15 AM 73.4 °F 46.4 °F 38% 29.98 in 10.0 mi Calm Calm - N/A   Clear
12:35 AM 73.4 °F 48.2 °F 41% 29.99 in 10.0 mi NNE 8.1 mph - N/A   Clear
12:55 AM 82.4 °F 50.0 °F 32% 30.02 in 10.0 mi North 21.9 mph 25.3 mph N/A   Scattered Clouds
1:15 AM 80.6 °F 51.8 °F 37% 30.03 in 7.0 mi NNE 29.9 mph 34.5 mph N/A   Clear
1:55 AM 77.0 °F 51.8 °F 41% 30.05 in 7.0 mi NNE 21.9 mph 28.8 mph N/A   Clear
2:15 AM 77.0 °F 51.8 °F 41% 30.05 in 7.0 mi NNE 18.4 mph 26.5 mph N/A   Clear
2:35 AM 75.2 °F 51.8 °F 44% 30.07 in 7.0 mi NNE 21.9 mph 31.1 mph N/A   Clear
2:55 AM 73.4 °F 51.8 °F 47% 30.07 in 10.0 mi NNE 18.4 mph 26.5 mph N/A   Clear
3:15 AM 73.4 °F 53.6 °F 50% 30.08 in 10.0 mi NNE 19.6 mph 24.2 mph N/A   Clear
3:35 AM 73.4 °F 53.6 °F 50% 30.09 in 10.0 mi NNE 16.1 mph 26.5 mph N/A   Clear
3:55 AM 71.6 °F 53.6 °F 53% 30.10 in 10.0 mi NNE 20.7 mph 31.1 mph N/A   Clear
4:15 AM 71.6 °F 53.6 °F 53% 30.10 in 10.0 mi NNE 21.9 mph 32.2 mph N/A   Clear
4:35 AM 69.8 °F 53.6 °F 56% 30.11 in 10.0 mi NNE 24.2 mph 32.2 mph N/A   Clear
4:55 AM 69.8 °F 53.6 °F 56% 30.12 in 10.0 mi NNE 20.7 mph 33.4 mph N/A   Clear
5:15 AM 69.8 °F 53.6 °F 56% 30.12 in 10.0 mi NE 17.3 mph 32.2 mph N/A   Clear
5:35 AM 68.0 °F 51.8 °F 56% 30.13 in 10.0 mi NE 24.2 mph 33.4 mph N/A   Clear
5:55 AM 68.0 °F 51.8 °F 56% 30.14 in 10.0 mi NE 21.9 mph 31.1 mph N/A   Clear
6:15 AM 68.0 °F 51.8 °F 56% 30.15 in 10.0 mi NE 18.4 mph 26.5 mph N/A   Clear
6:35 AM 68.0 °F 51.8 °F 56% 30.16 in 10.0 mi NNE 16.1 mph 29.9 mph N/A   Clear
6:55 AM 66.2 °F 51.8 °F 60% 30.17 in 10.0 mi NNE 16.1 mph 29.9 mph N/A   Clear
7:15 AM 66.2 °F 51.8 °F 60% 30.18 in 10.0 mi NNE 18.4 mph 28.8 mph N/A   Clear
7:35 AM 66.2 °F 51.8 °F 60% 30.19 in 10.0 mi NE 21.9 mph 31.1 mph N/A   Clear
7:55 AM 66.2 °F 53.6 °F 64% 30.20 in 10.0 mi NNE 19.6 mph 27.6 mph N/A   Clear
8:15 AM 64.4 °F 53.6 °F 68% 30.20 in 10.0 mi NNE 19.6 mph 27.6 mph N/A   Clear
8:35 AM 66.2 °F 51.8 °F 60% 30.21 in 10.0 mi NE 19.6 mph 35.7 mph N/A   Clear
8:55 AM 68.0 °F 51.8 °F 56% 30.22 in 10.0 mi NNE 21.9 mph 29.9 mph N/A   Clear
9:15 AM 68.0 °F 46.4 °F 46% 30.23 in 10.0 mi NE 20.7 mph 32.2 mph N/A   Clear
9:35 AM 69.8 °F 46.4 °F 43% 30.23 in 10.0 mi NNE 21.9 mph 29.9 mph N/A   Clear
9:55 AM 69.8 °F 42.8 °F 38% 30.24 in 10.0 mi NE 19.6 mph 32.2 mph N/A   Clear
10:15 AM 71.6 °F 42.8 °F 35% 30.24 in 10.0 mi NNE 21.9 mph 28.8 mph N/A   Clear
10:35 AM 71.6 °F 42.8 °F 35% 30.25 in 10.0 mi NNE 19.6 mph 31.1 mph N/A   Clear
10:55 AM 73.4 °F 41.0 °F 31% 30.25 in 10.0 mi NNE 23.0 mph 31.1 mph N/A   Clear
11:35 AM 73.4 °F 41.0 °F 31% 30.25 in 10.0 mi NE 17.3 mph 27.6 mph N/A   Clear
11:55 AM 77.0 °F 37.4 °F 24% 30.25 in 10.0 mi NE 17.3 mph 29.9 mph N/A   Clear
12:15 PM 77.0 °F 41.0 °F 28% 30.24 in 10.0 mi NNE 15.0 mph 27.6 mph N/A   Clear
12:35 PM 77.0 °F 41.0 °F 28% 30.24 in 10.0 mi NE 18.4 mph 27.6 mph N/A   Clear
12:55 PM 77.0 °F 41.0 °F 28% 30.24 in 10.0 mi NE 20.7 mph 26.5 mph N/A   Clear
1:15 PM 78.8 °F 42.8 °F 28% 30.23 in 10.0 mi NNE 17.3 mph 23.0 mph N/A   Clear
1:35 PM 78.8 °F 41.0 °F 26% 30.23 in 10.0 mi NNE 16.1 mph 20.7 mph N/A   Clear
1:55 PM 80.6 °F 42.8 °F 26% 30.23 in 10.0 mi NNE 16.1 mph 26.5 mph N/A   Clear
2:15 PM 78.8 °F 42.8 °F 28% 30.22 in 10.0 mi NE 17.3 mph 25.3 mph N/A   Clear
2:35 PM 80.6 °F 41.0 °F 24% 30.21 in 10.0 mi NNE 20.7 mph 29.9 mph N/A   Clear
2:55 PM 80.6 °F 41.0 °F 24% 30.21 in 10.0 mi NE 15.0 mph 25.3 mph N/A   Clear
3:15 PM 80.6 °F 41.0 °F 24% 30.20 in 10.0 mi North 15.0 mph 24.2 mph N/A   Clear
3:35 PM 80.6 °F 37.4 °F 21% 30.19 in 10.0 mi NE 16.1 mph 25.3 mph N/A   Clear
3:55 PM 80.6 °F 41.0 °F 24% 30.19 in 10.0 mi NNE 21.9 mph 28.8 mph N/A   Clear
4:15 PM 80.6 °F 39.2 °F 23% 30.18 in 10.0 mi NE 20.7 mph 27.6 mph N/A   Clear
4:35 PM 82.4 °F 39.2 °F 21% 30.18 in 10.0 mi NNE 18.4 mph 29.9 mph N/A   Clear
4:55 PM 80.6 °F 39.2 °F 23% 30.17 in 10.0 mi NNE 15.0 mph 19.6 mph N/A   Clear
5:15 PM 80.6 °F 37.4 °F 21% 30.17 in 10.0 mi NNE 17.3 mph 23.0 mph N/A   Clear
5:35 PM 78.8 °F 37.4 °F 23% 30.17 in 10.0 mi NNE 15.0 mph - N/A   Clear
5:55 PM 78.8 °F 37.4 °F 23% 30.17 in 10.0 mi NE 18.4 mph 24.2 mph N/A   Clear
6:15 PM 78.8 °F 39.2 °F 24% 30.17 in 10.0 mi NNE 19.6 mph 25.3 mph N/A   Clear
6:35 PM 78.8 °F 37.4 °F 23% 30.18 in 10.0 mi NNE 18.4 mph 21.9 mph N/A   Clear
6:55 PM 77.0 °F 37.4 °F 24% 30.18 in 10.0 mi NNE 16.1 mph 20.7 mph N/A   Clear
7:15 PM 75.2 °F 37.4 °F 25% 30.19 in 10.0 mi NE 13.8 mph 19.6 mph N/A   Clear
7:35 PM 73.4 °F 37.4 °F 27% 30.19 in 10.0 mi NE 13.8 mph 17.3 mph N/A   Clear
7:55 PM 73.4 °F 37.4 °F 27% 30.19 in 10.0 mi NE 11.5 mph - N/A   Clear
8:15 PM 71.6 °F 37.4 °F 29% 30.19 in 10.0 mi NE 8.1 mph - N/A   Clear
8:35 PM 71.6 °F 37.4 °F 29% 30.20 in 10.0 mi NE 9.2 mph - N/A   Clear
9:15 PM 71.6 °F 39.2 °F 31% 30.22 in 10.0 mi NNE 8.1 mph - N/A   Clear
9:35 PM 71.6 °F 41.0 °F 33% 30.22 in 10.0 mi NNE 10.4 mph - N/A   Clear
9:55 PM 71.6 °F 41.0 °F 33% 30.23 in 10.0 mi North 6.9 mph - N/A   Clear
10:15 PM 69.8 °F 41.0 °F 35% 30.23 in 10.0 mi North 8.1 mph - N/A   Clear
10:35 PM 69.8 °F 41.0 °F 35% 30.23 in 10.0 mi North 5.8 mph - N/A   Clear
11:15 PM 69.8 °F 41.0 °F 35% 30.24 in 10.0 mi Calm Calm - N/A   Clear
11:35 PM 69.8 °F 41.0 °F 35% 30.24 in 10.0 mi North 4.6 mph - N/A   Clear
11:55 PM 69.8 °F 41.0 °F 35% 30.24 in 10.0 mi North 4.6 mph - N/A   Clear